STARLINK-35247

Last updated on Sun Oct 19 2025 00:02:05 GMT+0000 (Coordinated Universal Time)

1 65622U 25210A 25291.08072366 .00166920 00000+0 39827-2 0 9996 2 65622 53.1604 251.8569 0004559 49.2269 310.9131 15.40439369 5864
UTC large
Height (km)
Speed (km/s)
/
Latitude / Longitude
Inclination (degrees)
Orbital Period (minutes)
Azimuth
Elevation
Range (km)
Doppler Factor

Next 0 passes for location: London (51.5072 / 0.1276)

Sorry there are no passes over London.